Location: ????????
(55.5667°N, 37.5833°E)
Time: 09:07:18
(UTC+00:00)

Cosmos 1452 Rocket - Pass Details

Date: 14 April 2026
Orbit: 764 x 769 km, 74.1° (Epoch: 10 May)

Event Time Altitude Azimuth Distance (km) Brightness Sun altitude
Exits shadow 22:37:09 33° 132° (SE) 1,273 4.4 -23.3°
Maximum altitude 22:38:16 37° 105° (ESE) 1,185 4.4 -23.2°
Drops below altitude 10° 22:43:02 10° 39° (NE) 2,313 6.9 -23.0°
Sets 22:45:33 0° 32° (NNE) 3,243 8.1 -22.9°
